[[{"header":{"parameterUnit":"m.s-1","parameterCategory":1,"la1":30.2991,"la2":30.254,"lo1":-89.0895,"lo2":-89.0444,"dy":0.0017,"dx":0.0017,"nx":28,"ny":28,"refTime":"2024-10-13T09:00:00:Z","depth":0,"parameterNumber":2,"parameterNumberName":"U-component_of_WINDS"},"data":[0,0,0,0,0,0,0,0,0,0,0,0,0,0,0,0,0,0,0,0,0,0,0,0,0,0,0,0,0,0,0,0,0,0,0,0,0,0,0,0,0,0,0,0,0,0,0,0,0,0,0,0,0,0,0,0,0,0,1.5556,1.5556,0,1.5542,1.5542,1.5542,1.5418,1.5415,1.5412,1.5409,1.5398,1.54,1.5403,0,0,0,0,0,0,0,0,0,0,0,0,0,1.5481,1.5483,1.5556,1.5556,1.5556,1.5542,1.5542,1.5541,1.5419,1.5415,1.5411,1.5408,1.5397,1.54,1.5403,0,0,0,0,0,0,0,0,0,0,0,0,0,1.5495,1.5484,1.5556,1.5493,1.5487,1.5542,1.5542,1.5541,1.5419,1.5415,1.541,1.5406,1.5396,1.54,1.5404,1.5519,0,0,1.5415,1.5417,0,0,0,0,0,0,0,0,1.5494,1.5498,1.5502,1.5497,1.5491,1.5477,1.5511,1.5534,1.5421,1.5445,1.5409,1.5404,1.5428,1.5429,1.5437,1.5519,1.5518,1.5416,1.5418,1.542,1.5421,0,0,0,0,0,0,0,1.5494,1.5498,1.5551,1.5503,1.5496,1.5466,1.5463,1.5515,1.5463,1.5443,1.5434,1.5433,1.5424,1.5433,1.5435,1.5518,1.5416,1.5419,1.5421,1.5423,1.5697,1.5702,0,0,0,0,0,0,1.5501,1.5498,1.5551,1.555,1.5481,1.5471,1.5468,1.5486,1.5462,1.5454,1.5437,1.5428,1.5429,1.5431,1.5435,1.557,1.542,1.5423,1.5425,1.5692,1.5698,1.5704,0,0,0,0,0,0,1.55,1.5507,1.5552,1.5522,1.5525,1.5478,1.5499,1.5488,1.5497,1.5458,1.5448,1.5456,1.5425,1.5429,1.5499,1.5568,1.5425,1.5428,1.5686,1.5694,1.5701,1.5842,0,0,0,0,0,0,1.5498,1.5507,1.555,1.5523,1.5527,1.5616,1.5503,1.5491,1.5504,1.5491,1.5473,1.5465,1.5422,1.5494,1.5503,1.5571,1.5431,1.568,1.569,1.5698,1.5831,1.5853,1.5872,0,0,0,0,0,1.5496,1.559,1.5553,1.556,1.5579,1.562,1.5622,1.557,1.551,1.5553,1.5528,1.5466,1.5559,1.5503,1.5512,1.5581,1.5675,1.5687,1.5698,1.5822,1.5849,1.5872,0,0,0,0,0,0,1.5627,1.5586,1.5543,1.5632,1.563,1.5599,1.5652,1.56,1.5616,1.5604,1.5539,1.5536,1.5617,1.5605,1.5544,1.5693,1.5606,1.562,1.5698,1.5723,1.5743,1.5745,1.5435,0,0,0,0,0,1.5666,1.5702,1.5664,1.5746,1.5747,1.57,1.5716,1.5675,1.5672,1.5671,1.5651,1.5651,1.568,1.57,1.5725,1.5828,1.5824,1.5881,1.5901,1.5919,1.5932,1.5988,1.6013,1.574,1.574,1.574,0,0,1.5748,1.5729,1.5756,1.5772,1.5766,1.5806,1.57,1.5747,1.5776,1.5678,1.5743,1.5729,1.5725,1.5813,1.585,1.5806,1.6006,1.5933,1.5947,1.5951,1.6002,1.6028,1.6051,1.5748,1.5747,1.5745,0,0,1.5917,1.5906,1.5973,1.597,1.5962,1.593,1.5946,1.5923,1.591,1.5974,1.5902,1.5936,1.5987,1.5988,1.5995,1.6165,1.611,1.6175,1.6284,1.6339,1.6361,1.638,1.6443,1.6466,1.6188,1.6188,1.6189,0,1.6019,1.6075,1.6015,1.6066,1.6077,1.5988,1.6058,1.6057,1.6059,1.6068,1.6018,1.6081,1.6072,1.616,1.6202,1.6209,1.6228,1.6178,1.6362,1.6381,1.6397,1.6457,1.648,1.6196,1.6196,1.6195,1.6194,0,1.6203,1.6243,1.6299,1.6302,1.6318,1.6378,1.6328,1.6352,1.631,1.6285,1.6353,1.6338,1.6359,1.6376,1.6336,1.646,1.6433,1.6374,1.6285,1.6433,1.6487,1.651,1.6208,1.6205,1.6203,1.6201,0,0,1.6455,1.6424,1.6446,1.6447,1.6432,1.6462,1.6519,1.6539,1.6561,1.6565,1.6613,1.6658,1.6604,1.6612,1.6571,1.662,1.6758,1.6555,1.6554,1.6595,1.6896,1.6942,1.6969,1.6721,1.6725,1.6728,1.6897,0,1.6619,1.6714,1.6662,1.6764,1.6802,1.6719,1.6769,1.6766,1.6744,1.6773,1.6748,1.6783,1.6707,1.6712,1.6756,1.6732,1.6818,1.6719,1.6767,1.6769,1.6772,1.6997,1.7046,1.7206,1.6918,1.6921,1.6924,0,1.6824,1.6836,1.6942,1.6922,1.6935,1.6981,1.6996,1.7024,1.702,1.7,1.701,1.6958,1.7014,1.6926,1.7003,1.6937,1.6953,1.6945,1.695,1.6954,1.6857,1.701,1.7256,1.7281,1.6957,1.6954,1.6952,0,1.7,1.7043,1.7112,1.7115,1.7092,1.7127,1.7119,1.711,1.7126,1.7139,1.7149,1.7169,1.718,1.7198,1.7153,1.7092,1.7238,1.7145,1.7225,1.7227,1.7261,1.726,1.7516,1.7268,1.7268,1.7268,1.7267,0,1.719,1.7259,1.7191,1.7235,1.731,1.725,1.7326,1.731,1.7303,1.7342,1.7271,1.7311,1.7248,1.7282,1.7247,1.7318,1.7323,1.7311,1.7301,1.7318,1.732,1.733,1.7318,1.7274,1.7273,1.7271,1.727,0,1.7401,1.7358,1.7428,1.7401,1.7395,1.7452,1.7429,1.7469,1.7441,1.7493,1.7501,1.7459,1.7494,1.7451,1.7483,1.746,1.7557,1.753,1.7559,1.7552,1.7635,1.7629,1.7908,1.7942,1.7671,1.7674,1.7676,0,1.7526,1.7577,1.7555,1.7576,1.7572,1.7607,1.7622,1.7565,1.7585,1.7584,1.7625,1.7654,1.7675,1.7736,1.7709,1.7734,1.7708,1.7804,1.7712,1.7728,1.7713,1.7711,1.7717,1.7824,1.7827,1.783,1.7832,0,1.7754,1.7731,1.7755,1.7773,1.7793,1.7804,1.7811,1.7832,1.7773,1.7799,1.7834,1.785,1.7882,1.7914,1.7931,1.7924,1.787,1.7861,1.7881,1.7901,1.7916,1.7912,1.7613,1.7855,1.7853,1.7851,1.785,1.7849,1.7927,1.797,1.7961,1.7991,1.7989,1.7997,1.8033,1.801,1.8038,1.806,1.8024,1.807,1.8065,1.8083,1.8083,1.8118,1.8077,1.8106,1.8114,1.8123,1.8136,1.7909,1.8121,1.812,1.8119,1.8119,1.8118,0,1.8154,1.8144,1.8172,1.8183,1.8207,1.8151,1.8156,1.818,1.822,1.822,1.8242,1.8284,1.8314,1.8289,1.8315,1.8348,1.8324,1.8357,1.8355,1.8355,1.817,1.8151,1.8377,1.8376,1.8376,1.8376,1.8376,1.8376,1.8275,1.8344,1.8319,1.8388,1.8377,1.842,1.8428,1.8435,1.8435,1.8484,1.8509,1.8492,1.8483,1.8507,1.8533,1.8525,1.8539,1.8582,1.8565,1.8393,1.8368,1.8344,1.8326,1.8584,1.8585,1.8748,1.8749,1.875]},{"header":{"parameterUnit":"m.s-1","parameterCategory":1,"la1":30.2991,"la2":30.254,"lo1":-89.0895,"lo2":-89.0444,"dy":0.0017,"dx":0.0017,"nx":28,"ny":28,"refTime":"2024-10-13T09:00:00:Z","depth":0,"parameterNumber":3,"parameterNumberName":"V-component_of_WINDS"},"data":[0,0,0,0,0,0,0,0,0,0,0,0,0,0,0,0,0,0,0,0,0,0,0,0,0,0,0,0,0,0,0,0,0,0,0,0,0,0,0,0,0,0,0,0,0,0,0,0,0,0,0,0,0,0,0,0,0,0,-1.9681,-1.9683,0,-1.9831,-1.9833,-1.9834,-1.9902,-1.9902,-1.9902,-1.9902,-2.0053,-2.0057,-2.0061,0,0,0,0,0,0,0,0,0,0,0,0,0,-1.945,-1.9454,-1.9681,-1.9683,-1.9685,-1.9831,-1.9833,-1.9835,-1.9902,-1.9902,-1.9902,-1.9901,-2.0051,-2.0056,-2.0061,0,0,0,0,0,0,0,0,0,0,0,0,0,-1.957,-1.9456,-1.968,-1.9736,-1.9742,-1.983,-1.9833,-1.9835,-1.9902,-1.9902,-1.9902,-1.9901,-2.005,-2.0056,-2.0062,-2.0105,0,0,-2.0081,-2.0084,0,0,0,0,0,0,0,0,-1.9563,-1.9579,-1.9726,-1.9732,-1.974,-1.9848,-1.9807,-1.9926,-1.9902,-1.9841,-1.9902,-1.9901,-1.9984,-1.9996,-2.0025,-2.0112,-2.0119,-2.0081,-2.0085,-2.0088,-2.009,0,0,0,0,0,0,0,-1.9555,-1.9573,-1.974,-1.9728,-1.9736,-1.9752,-1.9769,-1.983,-1.9912,-1.9847,-1.9852,-1.9869,-1.9988,-2.0018,-2.0029,-2.0121,-2.0081,-2.0087,-2.0091,-2.0093,-2.0253,-2.0254,0,0,0,0,0,0,-1.9538,-1.9565,-1.9735,-1.9745,-1.9649,-1.9757,-1.9776,-1.9813,-1.9912,-1.9927,-1.9869,-1.9871,-2.0008,-2.0021,-2.0034,-2.0093,-2.0088,-2.0094,-2.0097,-2.0253,-2.0254,-2.0254,0,0,0,0,0,0,-1.9533,-1.9553,-1.9729,-1.9657,-1.968,-1.9761,-1.9803,-1.9816,-1.9847,-1.9929,-1.9944,-1.9885,-2.0008,-2.0025,-2.0088,-2.0099,-2.0097,-2.0102,-2.0252,-2.0253,-2.0254,-2.0209,0,0,0,0,0,0,-1.9526,-1.955,-1.9568,-1.9656,-1.9684,-1.9781,-1.9803,-1.9819,-1.9858,-1.9862,-1.9948,-1.9962,-2.0009,-2.0078,-2.0094,-2.0107,-2.0107,-2.0252,-2.0253,-2.0254,-2.021,-2.0208,-2.0206,0,0,0,0,0,-1.9517,-1.9548,-1.9569,-1.9589,-1.9708,-1.9781,-1.9797,-1.9852,-1.9858,-1.9877,-1.993,-1.9959,-2.0095,-2.0084,-2.0102,-2.0118,-2.0251,-2.0252,-2.0254,-2.021,-2.0208,-2.0207,0,0,0,0,0,0,-1.9458,-1.9561,-1.9584,-1.9645,-1.9704,-1.9792,-1.9817,-1.9848,-1.9905,-1.9907,-1.9972,-1.9991,-2.0048,-2.0089,-2.0075,-2.0166,-2.0176,-2.0181,-2.0137,-2.0135,-2.0134,-2.0122,-2.0112,0,0,0,0,0,-1.9452,-1.9504,-1.9591,-1.9636,-1.9664,-1.9735,-1.9769,-1.9807,-1.987,-1.9895,-1.9953,-2.0012,-2.0069,-2.0104,-2.0161,-2.0216,-2.0236,-2.0236,-2.0234,-2.0233,-2.0236,-2.0269,-2.027,-2.0258,-2.0258,-2.0258,0,0,-1.944,-1.9503,-1.9531,-1.9625,-1.9675,-1.9727,-1.9756,-1.9809,-1.9848,-1.9903,-1.9966,-2.001,-2.0081,-2.014,-2.0169,-2.0176,-2.0244,-2.0234,-2.0232,-2.0237,-2.027,-2.0272,-2.0273,-2.0259,-2.0258,-2.0258,0,0,-1.9445,-1.9497,-1.9541,-1.9591,-1.9667,-1.9714,-1.9725,-1.9809,-1.9841,-1.9905,-1.9948,-1.9995,-2.009,-2.014,-2.0177,-2.0201,-2.0231,-2.0218,-2.0209,-2.0241,-2.0242,-2.0243,-2.0252,-2.0255,-2.0221,-2.0221,-2.0221,0,-1.942,-1.95,-1.9559,-1.9611,-1.9651,-1.9705,-1.975,-1.9795,-1.9885,-1.9911,-1.9918,-2.004,-2.0092,-2.0164,-2.017,-2.0198,-2.0212,-2.0208,-2.0237,-2.0239,-2.0241,-2.025,-2.0254,-2.0219,-2.0219,-2.0219,-2.0219,0,-1.9466,-1.9521,-1.9547,-1.9634,-1.9678,-1.9725,-1.9791,-1.9828,-1.9862,-1.9908,-1.9973,-2.0037,-2.0108,-2.0128,-2.0161,-2.0205,-2.0207,-2.0225,-2.0236,-2.0239,-2.0249,-2.0253,-2.0216,-2.0217,-2.0217,-2.0218,0,0,-1.9437,-1.9557,-1.9566,-1.9606,-1.9694,-1.9738,-1.9788,-1.9858,-1.9888,-1.9949,-1.9992,-2.0073,-2.009,-2.0133,-2.0172,-2.0199,-2.0216,-2.0214,-2.0217,-2.0212,-2.0269,-2.0255,-2.0258,-2.0236,-2.0237,-2.0237,-2.0263,0,-1.9454,-1.9547,-1.9602,-1.9673,-1.9725,-1.9777,-1.9821,-1.9879,-1.9924,-1.9974,-2.0024,-2.008,-2.0098,-2.0124,-2.0154,-2.0207,-2.0228,-2.0206,-2.0277,-2.0279,-2.0258,-2.0263,-2.0249,-2.0269,-2.0267,-2.0268,-2.0268,0,-1.9486,-1.9546,-1.9622,-1.9706,-1.973,-1.9768,-1.9837,-1.9885,-1.9952,-1.9983,-2.0031,-2.0071,-2.0126,-2.0133,-2.0209,-2.0194,-2.0226,-2.0256,-2.0259,-2.0267,-2.0273,-2.0272,-2.0277,-2.028,-2.0275,-2.0274,-2.0274,0,-1.9457,-1.9558,-1.9617,-1.9649,-1.9748,-1.9774,-1.9816,-1.9884,-1.9923,-1.9983,-2.0009,-2.0075,-2.011,-2.016,-2.0216,-2.0216,-2.0288,-2.0299,-2.0315,-2.0313,-2.0327,-2.0325,-2.0337,-2.0347,-2.0347,-2.0347,-2.0347,0,-1.947,-1.9515,-1.9605,-1.9641,-1.9693,-1.9756,-1.9805,-1.9851,-1.9911,-1.9957,-2.0006,-2.0047,-2.0119,-2.017,-2.0214,-2.0271,-2.0287,-2.0313,-2.0324,-2.0309,-2.0305,-2.0331,-2.0331,-2.0348,-2.0348,-2.0348,-2.0348,0,-1.9447,-1.9509,-1.9577,-1.9665,-1.9689,-1.9723,-1.9798,-1.9835,-1.9883,-1.994,-1.9957,-2.0032,-2.0095,-2.0156,-2.0239,-2.0269,-2.0325,-2.034,-2.0303,-2.0309,-2.0321,-2.0319,-2.035,-2.0358,-2.0361,-2.0361,-2.0361,0,-1.9451,-1.9487,-1.958,-1.9615,-1.9656,-1.9711,-1.9752,-1.9815,-1.9855,-1.9936,-1.9963,-2.0029,-2.0085,-2.0182,-2.0244,-2.0308,-2.0325,-2.0331,-2.0335,-2.0318,-2.0325,-2.0323,-2.0327,-2.0329,-2.0329,-2.0329,-2.0328,0,-1.9453,-1.9482,-1.9539,-1.9607,-1.9654,-1.9711,-1.9769,-1.9794,-1.9869,-1.9912,-1.9976,-2.002,-2.0106,-2.0171,-2.0243,-2.0286,-2.0319,-2.0327,-2.0334,-2.0318,-2.0295,-2.0309,-2.0298,-2.0326,-2.0326,-2.0326,-2.0326,-2.0327,-1.9444,-1.9478,-1.9549,-1.9611,-1.9662,-1.9715,-1.9755,-1.9808,-1.9864,-1.9939,-1.9973,-2.0039,-2.0106,-2.0206,-2.0249,-2.0301,-2.0309,-2.0319,-2.0322,-2.0323,-2.032,-2.0287,-2.0314,-2.0314,-2.0314,-2.0314,-2.0314,0,-1.9448,-1.9497,-1.9553,-1.9634,-1.9682,-1.9711,-1.9777,-1.9816,-1.9873,-1.9933,-1.9988,-2.0063,-2.0127,-2.0194,-2.0261,-2.029,-2.0307,-2.0305,-2.0304,-2.0313,-2.0308,-2.0295,-2.029,-2.029,-2.029,-2.029,-2.029,-2.029,-1.9456,-1.9516,-1.9554,-1.964,-1.9688,-1.9753,-1.9789,-1.9838,-1.9887,-1.9968,-2.0022,-2.0066,-2.0129,-2.0202,-2.0261,-2.028,-2.0302,-2.0296,-2.0318,-2.0312,-2.0314,-2.0315,-2.0304,-2.03,-2.03,-2.032,-2.032,-2.032]}]]